Location: Most
(50.5330°N, 13.6500°E)
Time: 06:10:22
(UTC+01:00)

N. Korean satellite - Pass Details

Date: 26 October 2021
Orbit: 446 x 495 km, 97.3° (Epoch: 04 December)

Event Time Altitude Azimuth Distance (km) Brightness Sun altitude
Rises 18:48:48 0° 220° (SW) 2,542 11.0 -9.7°
Reaches altitude 10° 18:52:34 10° 261° (W) 1,684 10.9 -10.3°
Maximum altitude 18:53:19 11° 273° (W) 1,656 10.8 -10.4°
Drops below altitude 10° 18:54:04 10° 285° (WNW) 1,691 10.5 -10.5°
Sets 18:57:54 0° 327° (NNW) 2,592 10.6 -11.1°
